www.pogodaiklimat.ru

Погода и климат >> Архив погоды >> Беларусь >> Ганцевичи


ПОГОДА в Ганцевичах

  • Прогноз погоды в Ганцевичах
  • Монитор погоды в Ганцевичах
  • Климат города

АРХИВ ПОГОДЫ в Ганцевичах

Время (UTC), дата Ветер
(напр.,м/с)
 
Видим.   Явления Облачность Т
(С)
Тd
(С)
f
(%)
Тe
(С)
Тes
(С)
Комфортность P
(гПа)
Po
(гПа)
Тmin
(С)
Tmax
(С)
R
(мм)
R24
(мм)
S
(см)
06 19.04 СВ 3 10 км 10 баллов +1.3 -5.8 59 -3 -3 1027.0 1007.1 -2.4
09 19.04 СВ 5 10 км 10 баллов +4.4 -9.7 35 +1 +1 1028.0 1008.3
12 19.04 СВ 5
{10}
10 км 10 баллов +5.0 -9.6 34 +1 +1 1028.0 1008.3
15 19.04 СВ 4
{10}
10 км 10 баллов +4.5 -9.3 36 +1 +1 1028.0 1008.3
18 19.04 СВ 3 10 км 10 баллов +2.1 -7.8 48 -1 -1 1029.0 1009.1 +6.3
06 20.04 СВ 3 10 км ясно +1.5 -8.6 47 -2 +2 1030.0 1010.1 -3.7
09 20.04 СВ 4 10 км 3 балла +4.8 -10.9 31 +2 +7 1029.0 1009.3
12 20.04 СВ 4 10 км ясно +6.7 -12.4 24 +4 +11 1028.0 1008.5
15 20.04 С 3 10 км ясно +7.0 -10.3 28 +5 +7 1026.0 1006.5
18 20.04 штиль 0 10 км 3 балла +2.7 -5.4 55 +2 +2 1026.0 1006.2 +7.7
06 21.04 штиль 0 10 км ясно +3.0 -6.1 51 +3 +9 1022.0 1002.3 -5.6
09 21.04 З 5 10 км ясно +7.6 -7.6 33 +5 +11 1019.0 999.7
12 21.04 ЮЗ 4
{10}
10 км 10 баллов +8.8 -4.4 39 +6 +6 1015.0 995.9
15 21.04 З 5
{11}
10 км 10 баллов +7.7 -2.3 49 +4 +4 1013.0 993.8
18 21.04 ЮЗ 3
{10}
10 км 10 баллов +7.5 +1.3 65 +5 +5 1011.0 991.9 +9.8
06 22.04 СЗ 6
{12}
10 км ливневой дождь 10 баллов +5.6 +1.9 77 +1 +1 1002.0 982.9 +5.4 2
09 22.04 СЗ 6
{14}
10 км 10 баллов +7.2 -3.9 45 +3 +3 1004.0 985.0
12 22.04 СЗ 8
{16}
10 км ливневой дождь 10 баллов +6.9 -2.5 51 +2 +2 1006.0 986.9
15 22.04 ЮЗ 6
{13}
10 км 6 баллов +8.7 -4.5 39 +5 +6 1006.0 987.0
18 22.04 ЮЗ 4
{12}
10 км 3 балла +5.9 -1.7 58 +2 +2 1007.0 987.8 +10.2
06 23.04 СЗ 3 10 км 3 балла +3.5 -0.3 76 -0 +2 1008.0 988.6 -0.3
09 23.04 СЗ 1 10 км 3 балла +5.0 +1.7 79 +4 +14 опасность
простуды
1009.0 989.7
12 23.04 ЮЗ 4
{11}
10 км 10 баллов +3.8 -2.2 65 -0 -0 1010.0 990.6
15 23.04 ЮЗ 4 10 км ливневой дождь 10 баллов +4.2 -2.0 64 0 0 1010.0 990.6
18 23.04 штиль 0 10 км 10 баллов +3.0 +0.2 82 +2 +2 1012.0 992.5 +8.1 2
06 24.04 штиль 0 10 км 10 баллов +2.9 -1.3 74 +2 +2 1014.0 994.5 -3.0
09 24.04 З 2 10 км ливневой дождь 10 баллов +6.3 -1.6 57 +4 +4 1014.0 994.7
12 24.04 ЮЗ 4
{11}
10 км ливневой дождь 10 баллов +5.0 -0.6 67 +1 +1 1014.0 994.6
15 24.04 З 4 10 км 3 балла +8.4 -3.1 44 +6 +7 1014.0 994.9
18 24.04 штиль 0 10 км 3 балла +4.6 -2.0 62 +4 +4 1014.0 994.6 +8.9
06 25.04 Ю 3 10 км 10 баллов +6.3 -2.3 54 +4 +4 1013.0 993.7 +1.4
09 25.04 Ю 4 10 км 10 баллов +10.8 -1.3 43 +9 +9 1011.0 992.1
12 25.04 Ю 5
{11}
10 км 10 баллов +15.1 -0.6 34 +14 +14 1008.0 989.4
15 25.04 Ю 6
{14}
10 км 10 баллов +16.3 -0.0 33 +15 +15 1007.0 988.5
18 25.04 Ю 3
{12}
10 км 10 баллов +14.8 +1.0 39 +14 +14 1005.0 986.5 +16.7

 

Местоположение метеостанции Ганцевичи (Брестская область, Беларусь): широта 52.75 долгота 26.44 высота над уровнем моря 157 м.

В архиве по умолчанию представлена погода в Ганцевичах за последнюю неделю. Архивные данные за месяц целиком и за предыдущие месяцы, начиная с января 2011 года, Вы можете получить, выбрав интересующий диапазон дат из раскрывающегося списка и нажав кнопку "Ввод!".

Внимание! Время в таблицах - всемирное. Для получения местного времени необходимо прибавить поправку, которая в Ганцевичах равна 3 ч.

Смотрите также архив погоды в соседних городах и на ближайших метеорологических станциях:

Погода в Полесской (Брестская область, Беларусь) (53 км)
Погода в Ивацевичах (Брестская область, Беларусь) (73 км)
Погода в Пинске (Брестская область, Беларусь) (75 км)
Погода в Слуцке (Минская область, Беларусь) (81 км)
Погода в Столбцах (Минская область, Беларусь) (83 км)
Погода в Новогрудке (Гродненская область, Беларусь) (102 км)
Погода в Барановичах (Брестская область, Беларусь) (111 км)
Погода в Житковичах (Гомельская область, Беларусь) (113 км)
Погода в Пружанах (Брестская область, Беларусь) (133 км)
Погода в Марьиной Горке (Минская область, Беларусь) (137 км)

Пояснения к столбцам:

Ветер - указаны скорость ветра в м/с - средняя за 10 мин, порывы в срок и между сроками (в фигурных скобках) и направление, откуда дует ветер: С - северный, СВ - северо-восточный, В - восточный, ЮВ - юго-восточный, Ю - южный, ЮЗ - юго-западный, З - западный, СЗ - северо-западный.
Видимость - горизонтальная дальность видимости в метрах или километрах. При видимости от 1 до 10 км при отсутствии осадков обычно наблюдается дымка, при ухудшении видимости до 1 км и менее - туман. В сухую погоду видимость может ухудшаться дымом, пылью или мглою.
Явления - указаны атмосферные явления, наблюдавшиеся в срок или в последний час перед сроком; фигурными скобками обозначены явления, наблюдавшиеся между сроками (за 1-3 часа до срока); квадратными скобками обозначены град или гололедные отложения с указанием их диаметра в мм.
Облачность - указаны через наклонную черту общая и нижняя облачность в баллах и высота нижней границы облаков в метрах; квадратными скобками обозначены формы облаков: Ci - перистые, Cs - перисто-слоистые, Cc - перисто-кучевые, Ac - высококучевые, As - высокослоистые, Sc - слоисто-кучевые, Ns - слоисто-дождевые, Cu - кучевые, Cb - кучево-дождевые. Подробнее классификацию облаков см. в Атласе облаков (PDF).
T - Температура воздуха - температура, измеренная на высоте 2 м над землей.
Td - Температура точки росы - температура, при понижении до которой содержащийся в воздухе водяной пар достигнет насыщения.
f - Относительная влажность воздуха - влажноcть воздуха, измеренная на высоте 2 м над землей.
Te - Эффективная температура - температура, которую ощущает одетый по сезону человек в тени. Характеристика душности погоды. При расчете учитывается влияние влажности воздуха и скорости ветра на теплоощущения человека.
Tes - Эффективная температура на солнце - температура, которую ощущает человек, с поправкой на солнечный нагрев. Характеристика знойности погоды. Зависит от высоты солнца над горизонтом, облачности и скорости ветра. Ночью, в пасмурную погоду, а также при ветре 12 м/с и более поправка равна нулю.
P - Атмосферное давление - приведенное к уровню моря атмосферное давление.
Po - Атмосферное давление - измеренное на уровне метеостанции атмосферное давление.
Tmin - Минимальная температура - минимум температуры воздуха на высоте 2 м над землей.
Tmax - Максимальная температура - максимум температуры воздуха на высоте 2 м над землей.
R - Количество осадков - Количество выпавших осадков за период времени, мм. При наведении курсора мыши на число - период времени, за который выпало указанное количество осадков.
R24 - Количество осадков - Количество выпавших осадков за 24 часа, мм.
S - Снежный покров - Высота снежного покрова, см. При наведении курсора мыши на число - состояние снежного покрова и степень покрытия местности в баллах.